Lewis Run, PA

5:14 PM EST on December 07, 2016 (GMT -0500)
Bradford Regional

Weather History for KBFD - July, 2012

Change the Weather History Date:

Friday, July 6, 2012

  Actual Average Record
Temperature  
Mean Temperature 74 °F 65 °F  
Max Temperature 91 °F 77 °F 93 °F (1988)
Min Temperature 57 °F 53 °F 37 °F (1979)
Degree Days  
Heating Degree Days 0 0  
Month to date heating degree days 1  
Since 1 June heating degree days 146  
Since 1 July heating degree days 1  
Cooling Degree Days 9 2  
Month to date cooling degree days 12  
Year to date cooling degree days 62  
Since 1 June cooling degree days 52  
Growing Degree Days 24 (Base 50)    
Moisture  
Dew Point 61 °F    
Average Humidity 68    
Maximum Humidity 90    
Minimum Humidity 38    
Precipitation  
Precipitation 0.00 in 0.13 in 0.80 in (1987)
Month to date precipitation 0.80  
Year to date precipitation 22.45  
Sea Level Pressure  
Sea Level Pressure 29.98 in    
Wind  
Wind Speed 2 mph (WNW)    
Max Wind Speed 15 mph    
Max Gust Speed 18 mph    
Visibility 9 miles    
Events      
T = Trace of Precipitation, MM = Missing Value Source: NWS Daily Summary

Daily Weather History Graph

Daily Weather History Graph

Search for Another Location

Airport or City:

Trip Planner

Search our weather history database for the weather conditions in past years. The results will help you decide how hot, cold, wet, or windy it might be!

Date:

Astronomy

Jul. 06, 2012 Rise Set
Actual Time 5:46 AM EDT 8:51 PM EDT
Civil Twilight 5:12 AM EDT 9:25 PM EDT
Nautical Twilight 4:29 AM EDT 10:08 PM EDT
Astronomical Twilight 3:38 AM EDT 10:59 PM EDT
Moon 10:36 PM EDT (7/6) 9:07 AM EDT (7/6)
Length of Visible Light 16h 12m
Length of Day
15h 05m
Waning Gibbous, 89% of the Moon is Illuminated
Jul 6
Waning Gibbous
Jul 10
Last Quarter
Jul 19
New
Jul 26
First Quarter
Aug 1
Full

Hourly Weather History & Observations

Time (EDT) Temp. Heat Index Dew Point Humidity Pressure Visibility Wind Dir Wind Speed Gust Speed Precip Events Conditions
12:53 AM 63.0 °F - 59.0 °F 87% 29.96 in 8.0 mi Calm Calm - N/A   Clear
1:53 AM 62.1 °F - 59.0 °F 90% 29.95 in 8.0 mi Calm Calm - N/A   Clear
2:53 AM 61.0 °F - 57.0 °F 87% 29.95 in 9.0 mi Calm Calm - N/A   Clear
3:53 AM 60.1 °F - 55.9 °F 86% 29.96 in 7.0 mi Calm Calm - N/A   Clear
4:06 AM 59.0 °F - 55.9 °F 90% 30.01 in 2.5 mi Calm Calm - N/A   Clear
4:15 AM 59.0 °F - 55.9 °F 90% 30.01 in 7.0 mi Calm Calm - N/A   Clear
4:53 AM 57.9 °F - 55.0 °F 90% 29.97 in 8.0 mi Calm Calm - N/A   Clear
5:53 AM 57.9 °F - 55.0 °F 90% 29.99 in 9.0 mi Calm Calm - N/A   Clear
6:53 AM 60.1 °F - 57.0 °F 90% 29.99 in 7.0 mi Calm Calm - N/A   Clear
7:53 AM 71.1 °F - 64.0 °F 78% 29.99 in 10.0 mi Calm Calm - N/A   Clear
8:53 AM 77.0 °F - 63.0 °F 62% 29.99 in 10.0 mi NW 3.5 mph - N/A   Clear
9:53 AM 80.1 °F 81.5 °F 63.0 °F 56% 29.99 in 10.0 mi Variable 3.5 mph - N/A   Clear
10:53 AM 82.0 °F 83.4 °F 64.0 °F 54% 29.99 in 10.0 mi SW 4.6 mph - N/A   Clear
11:53 AM 84.0 °F 84.9 °F 63.0 °F 49% 29.98 in 10.0 mi Variable 5.8 mph - N/A   Clear
12:53 PM 87.1 °F 88.9 °F 64.9 °F 48% 29.99 in 10.0 mi WSW 6.9 mph - N/A   Scattered Clouds
1:53 PM 88.0 °F 90.3 °F 66.0 °F 48% 29.97 in 10.0 mi West 8.1 mph - N/A   Scattered Clouds
2:53 PM 89.1 °F 91.3 °F 66.0 °F 46% 29.96 in 10.0 mi West 6.9 mph - N/A   Partly Cloudy
3:53 PM 88.0 °F 90.3 °F 66.0 °F 48% 29.97 in 10.0 mi NW 9.2 mph 18.4 mph N/A   Scattered Clouds
4:53 PM 91.0 °F 91.5 °F 62.1 °F 38% 29.96 in 10.0 mi WNW 11.5 mph - N/A   Clear
5:53 PM 89.6 °F 90.1 °F 62.6 °F 40% 30.01 in 10.0 mi NNW 15.0 mph - N/A   Clear
6:53 PM 86.0 °F 87.3 °F 64.0 °F 48% 29.96 in 10.0 mi NW 9.2 mph - N/A   Clear
7:53 PM 82.0 °F 83.0 °F 62.1 °F 51% 29.95 in 10.0 mi NW 6.9 mph - N/A   Clear
8:53 PM 73.9 °F - 64.0 °F 71% 29.96 in 10.0 mi WNW 3.5 mph - N/A   Clear
9:53 PM 71.1 °F - 62.1 °F 73% 29.97 in 10.0 mi Calm Calm - N/A   Clear
10:53 PM 69.1 °F - 62.1 °F 78% 29.97 in 10.0 mi Calm Calm - N/A   Clear
11:53 PM 66.0 °F - 62.1 °F 87% 29.98 in 10.0 mi Calm Calm - N/A   Clear